Volver al catálogo

FREGAT DEB

LostUNKNOWN
NORAD 47093·DEBRIS·🇷🇺 Russia

Lanzado Jul 18, 2011 desde Baikonur Cosmodrome

Loading…

Próximos Pases (próximas 24 horas)

TLE

ObsoletoSource: Space-Track

Época: Nov 23, 2020, 03:22 UTC

1 47093U 11037NE  20328.14043953  .00036620  00000-0  12521-1 0  9998
2 47093  51.6082 271.0943 1589731  40.8455 329.1787 11.76089803  4579

Sigue FREGAT DEB en tiempo real con AllMySat

Download on the App Store